Location: Cahas Mountain Overlook
(37.0833°N, 80.1000°W)
Time: 13:48:22
(UTC-05:00)

SR - Pass Details

Date: 13 December 2023
Orbit: 574 x 867 km, 66.7° (Epoch: 29 February)

Event Time Altitude Azimuth Distance (km) Brightness Sun altitude
Rises 16:53:37 0° 348° (NNW) 3,440 ? 1.0°
Reaches altitude 10° 16:57:49 10° 16° (NNE) 2,464 ? 0.2°
Maximum altitude 17:00:12 13° 41° (NE) 2,254 ? -0.2°
Drops below altitude 10° 17:02:32 10° 66° (ENE) 2,400 ? -0.6°
Sets 17:06:29 0° 95° (E) 3,261 ? -1.3°
